Cheraw, CO

12:27 AM MDT on July 30, 2016 (GMT -0600)
La Junta Municipal

Weather History for KLHX - October, 2013

Change the Weather History Date:

Friday, October 11, 2013

  Actual Average Record
Temperature  
Mean Temperature 59 °F 56 °F  
Max Temperature 74 °F 71 °F 95 °F (2015)
Min Temperature 44 °F 40 °F 25 °F (1977)
Degree Days  
Heating Degree Days 6 9  
Month to date heating degree days 58 84  
Since 1 July heating degree days 70 157  
Cooling Degree Days 0 0  
Month to date cooling degree days 8 7  
Year to date cooling degree days 1663 1223  
Growing Degree Days 10 (Base 50)    
Moisture  
Dew Point 31 °F    
Average Humidity 47    
Maximum Humidity 77    
Minimum Humidity 17    
Precipitation  
Precipitation 0.00 in 0.03 in 2.19 in (2008)
Month to date precipitation 0.14 0.31  
Year to date precipitation 4.86 10.22  
Sea Level Pressure  
Sea Level Pressure 29.71 in    
Wind  
Wind Speed 16 mph (WSW)    
Max Wind Speed 30 mph    
Max Gust Speed 37 mph    
Visibility 10 miles    
Events      
T = Trace of Precipitation, MM = Missing Value Source: NWS Daily Summary

Daily Weather History Graph

Daily Weather History Graph

Search for Another Location

Airport or City:

Trip Planner

Search our weather history database for the weather conditions in past years. The results will help you decide how hot, cold, wet, or windy it might be!

Date:

Astronomy

Oct. 11, 2013 Rise Set
Actual Time 6:59 AM MDT 6:21 PM MDT
Civil Twilight 6:32 AM MDT 6:48 PM MDT
Nautical Twilight 6:02 AM MDT 7:18 PM MDT
Astronomical Twilight 5:31 AM MDT 7:48 PM MDT
Moon 1:40 PM MDT (10/11) No Moon Set
Length of Visible Light 12h 15m
Length of Day
11h 22m
Waxing Crescent, 48% of the Moon is Illuminated
Oct 11
Waxing Crescent
Oct 11
First Quarter
Oct 18
Full
Oct 26
Last Quarter
Nov 3
New

Hourly Weather History & Observations

Time (MDT) Temp. Dew Point Humidity Pressure Visibility Wind Dir Wind Speed Gust Speed Precip Events Conditions
12:53 AM 48.0 °F 30.0 °F 50% 29.53 in 10.0 mi SW 24.2 mph - N/A   Clear
1:53 AM 48.0 °F 28.9 °F 48% 29.53 in 10.0 mi SW 26.5 mph - N/A   Clear
2:53 AM 48.0 °F 28.9 °F 48% 29.52 in 10.0 mi SW 24.2 mph - N/A   Clear
3:53 AM 48.9 °F 28.0 °F 44% 29.54 in 10.0 mi WSW 24.2 mph 31.1 mph N/A   Clear
4:53 AM 50.0 °F 27.0 °F 41% 29.60 in 10.0 mi SW 28.8 mph - N/A   Clear
5:53 AM 51.1 °F 26.1 °F 38% 29.62 in 10.0 mi SW 21.9 mph - N/A   Clear
6:53 AM 50.0 °F 28.0 °F 43% 29.63 in 10.0 mi SW 21.9 mph - N/A   Clear
7:53 AM 51.1 °F 28.9 °F 43% 29.64 in 10.0 mi WSW 21.9 mph - N/A   Clear
8:53 AM 57.0 °F 30.0 °F 36% 29.65 in 10.0 mi West 17.3 mph - N/A   Clear
9:53 AM 63.0 °F 28.9 °F 28% 29.66 in 10.0 mi West 17.3 mph - N/A   Clear
10:53 AM 66.9 °F 27.0 °F 22% 29.68 in 10.0 mi WNW 16.1 mph - N/A   Clear
11:53 AM 70.0 °F 24.1 °F 18% 29.68 in 10.0 mi North 8.1 mph 17.3 mph N/A   Clear
12:53 PM 71.1 °F 25.0 °F 18% 29.68 in 10.0 mi North 6.9 mph 16.1 mph N/A   Clear
1:53 PM 73.0 °F 27.0 °F 18% 29.67 in 10.0 mi NNE 5.8 mph - N/A   Clear
2:53 PM 73.9 °F 27.0 °F 18% 29.68 in 10.0 mi ESE 11.5 mph 18.4 mph N/A   Partly Cloudy
3:53 PM 72.0 °F 25.0 °F 17% 29.71 in 10.0 mi East 13.8 mph - N/A   Clear
4:53 PM 70.0 °F 26.1 °F 19% 29.73 in 10.0 mi East 15.0 mph 20.7 mph N/A   Scattered Clouds
5:53 PM 66.0 °F 33.1 °F 29% 29.76 in 10.0 mi North - - N/A   Clear
6:53 PM 63.0 °F 35.1 °F 35% 29.81 in 10.0 mi North - - N/A   Mostly Cloudy
7:53 PM 57.9 °F 41.0 °F 53% 29.89 in 10.0 mi North - - N/A   Overcast
8:53 PM 53.1 °F 44.1 °F 71% 29.93 in 10.0 mi North - - N/A   Overcast
9:53 PM 51.1 °F 41.0 °F 68% 29.94 in 10.0 mi North - - N/A   Clear
10:53 PM 48.9 °F 39.9 °F 71% 29.96 in 10.0 mi North - - N/A   Clear
11:53 PM 48.0 °F 41.0 °F 77% 29.98 in 10.0 mi North - - N/A   Clear